Home > Weather > Stjørdal > Past weeks

Flag for Norway Past Weather in Stjørdal, Norway — Yesterday and Last 2 Weeks

Now
55 °F

Scattered showers. Broken clouds.


Feels Like: 49 °F
Forecast: 50 / 63 °F
Wind: 33 mph from West

Location: Trondheim / Vaernes

Current Time: Aug 27, 2016 at 8:45:43 AM

Latest Report: Aug 27, 2016 at 7:50 AM


Visibility: N/A

Pressure: 29.71 "Hg

Humidity: 82%

Dew Point: 50 °F

Location of StjørdalLocation

Past Weather in Stjørdal — Graph

°F

Stjørdal Temperature Yesterday

Maximum temperature yesterday: 63 °F (at 12:20 PM)
Minimum temperature yesterday: 45 °F (at 5:20 AM)
Average temperature yesterday: 55 °F

High & Low Weather Summary for the Past Weeks

 TemperatureHumidityPressure
High77 °F (Aug 18, 4:50 PM)100% (Aug 12, 7:20 AM)30.27 "Hg (Aug 12, 7:20 AM)
Low43 °F (Aug 12, 7:20 AM)32% (Aug 18, 5:50 PM)29.36 "Hg (Aug 26, 6:20 PM)
Average58 °F76%29.97 "Hg
* Reported Aug 12 7:20 AM — Aug 27 7:20 AM, Stjørdal, Weather by CustomWeather, © 2016

Note: Actual official high and low records may vary slightly from our data, if they occured in-between our weather recording intervals... More about our weather records

Advertising

Stjørdal Weather History for the Previous 24 Hours

Scroll right to see more
 ConditionsComfort  
Time TempWeatherWind HumidityBarometerVisibility
7:20 AM
Sat, Aug 27
55 °FPartly sunny.36 mph82%29.68 "HgN/A
6:50 AM55 °FBroken clouds.38 mph82%29.68 "HgN/A
6:20 AM55 °FPartly cloudy.37 mph82%29.65 "Hg6 mi
5:50 AM55 °FLight rain. Partly cloudy.38 mph82%29.62 "HgN/A
5:20 AM55 °FLight rain. Partly cloudy.37 mph82%29.62 "HgN/A
4:50 AM54 °FLight rain. Partly cloudy.31 mph88%29.59 "HgN/A
3:50 AM54 °FPartly cloudy.26 mph88%29.59 "Hg6 mi
2:50 AM54 °FPartly cloudy.28 mph82%29.56 "HgN/A
1:50 AM55 °FPartly cloudy.32 mph82%29.53 "HgN/A
1:20 AM55 °FPartly cloudy.33 mph82%29.50 "Hg5 mi
12:50 AM55 °FPartly cloudy.38 mph82%29.47 "Hg4 mi
12:20 AM57 °FPartly cloudy.35 mph77%29.45 "Hg6 mi
11:50 PM
Fri, Aug 26
59 °FPartly cloudy.36 mph72%29.42 "HgN/A
11:20 PM61 °FPartly cloudy.24 mph68%29.39 "HgN/A
10:50 PM61 °FPartly cloudy.9 mph72%29.39 "HgN/A
10:20 PM61 °FPartly cloudy.9 mph68%29.39 "HgN/A
9:50 PM61 °FPartly cloudy.9 mph72%29.42 "HgN/A
9:20 PM61 °FBroken clouds.16 mph72%29.42 "HgN/A
8:50 PM61 °FBroken clouds.12 mph77%29.42 "HgN/A
8:20 PM59 °FBroken clouds.10 mph88%29.42 "HgN/A
7:50 PM59 °FBroken clouds.17 mph88%29.39 "HgN/A
7:20 PM61 °FBroken clouds.6 mph88%29.36 "HgN/A
6:50 PM61 °FBroken clouds.5 mph88%29.36 "HgN/A
6:20 PM63 °FDrizzle. Broken clouds.5 mph83%29.36 "HgN/A
5:50 PM61 °FLight rain. Broken clouds.9 mph77%29.39 "HgN/A
5:20 PM59 °FScattered showers. Broken clouds.15 mph82%29.42 "HgN/A
4:50 PM57 °FBroken clouds.17 mph88%29.47 "HgN/A
4:20 PM57 °FBroken clouds.17 mph88%29.53 "HgN/A
3:50 PM57 °FRain. Broken clouds.17 mph88%29.59 "Hg6 mi
3:20 PM57 °FRain. Broken clouds.14 mph88%29.65 "Hg5 mi
2:50 PM57 °FRain. Broken clouds.15 mph88%29.65 "Hg4 mi
2:20 PM59 °FLight rain. Broken clouds.12 mph82%29.71 "HgN/A
1:50 PM61 °FLight rain. Partly sunny.8 mph83%29.74 "HgN/A
1:20 PM61 °FLight rain. Partly sunny.6 mph77%29.77 "HgN/A
12:50 PM63 °FClear.10 mph68%29.77 "HgN/A
12:20 PM63 °FSunny.9 mph68%29.80 "Hg10 mi
11:50 AM61 °FSunny.10 mph72%29.80 "Hg10 mi
11:20 AM61 °FPassing clouds.8 mph72%29.83 "HgN/A
10:50 AM61 °FSunny.9 mph68%29.86 "Hg10 mi
10:20 AM55 °FSunny.8 mph82%29.89 "Hg10 mi
9:50 AM52 °FSunny.8 mph88%29.92 "Hg10 mi
9:20 AM50 °FSunny.5 mph94%29.92 "Hg10 mi
8:50 AM50 °FSunny.7 mph94%29.95 "Hg10 mi
8:20 AM48 °FSunny.8 mph94%29.95 "Hg10 mi
Weather by CustomWeather, © 2016

See weather overviewHow to use our weather pages